PEGASUS DEB, 39924

Orbit data source: Space-Track

PEGASUS DEB, 39924 is space debris in LEO originally from a launch on Thu, 19 May 1994 UTC launched from the Air Force Western Test Range (AFWTR). Debris objects in space refer to the collection of defunct objects orbiting the Earth. Examples of debris include non-operational satellites, rocket bodies, and fragments generated from explosions, collisions, or faulty payload assembly.

Loading next visibility...
Identifier
39924, 1994-029AFX
Orbit
LEO
Country
Flag of USUS
Related business
Manufacturer
Unknown
Mission
Spacecraft
Bus & Motor
Unknown
Mass
Unknown
Launch date (UTC)
1994-05-19 (32 years ago)
Launch vehicle
Unknown
Launch site
Air Force Western Test Range (AFWTR)
Object type
Payload
Rocket body
Debris
Shape & HBR
Unknown shape, 0.1 m
Radar Cross Section
Small (<0.1 m²)

Expand to show TLE details & history
Last TLE update: 1 day ago

TLE from 1 day ago
0 PEGASUS DEB
1 39924U 94029AFX 26208.44437189  .00002979  00000-0  29927-3 0  9998
2 39924  81.8540 105.4452 0106133 148.0169 212.7548 14.86756980652960
Epoch: 2026-07-27T10:39Z
TLE epoch observation values (Epoch: 2026-07-27T10:39:53.731Z)
Latitude
-0.00007°
Longitude
0.34345°
Altitude
673.698 km
Speed
7.486 km/s
True Right ascension
07h 01m 46s
True Declination
0° 00' 00"
Sunlit
Object was in daylight at epoch
Visualization orbit readout
Latitude
Unknown
Longitude
Unknown
Altitude
Unknown
Speed
Unknown
Apparent Right ascension
Unknown
Apparent Declination
Unknown
Sunlit
N/A
Visualization observer readout
Local Sidereal Time
23:36:14
Azimuth
Unknown
Elevation
Unknown
Doppler factor
Unknown
Orbital elements
Apogee altitude
679.234 km
Perigee altitude
531.004 km
Semi-major axis
6,983.256 km
Eccentricity
0.01061
Inclination
81.854°
RAAN
105.4452°
Arg. of periapsis
148.0169°
True anomaly
212.10406°
Mean anomaly
212.7548°
Eccentric anomaly
212.42871°
Mean motion
3.71926 °/min
Orbital period
96.79 mins
BSTAR
0.00029927
Loading maneuver chart data...
Computing Atmospheric mass density...

Documentation

Showing up to 5 results
|